This is the latest recevied weather packets stored in our database for station/object KC9NPJ-13. If no packets are shown the sender has not sent any weather packets the latest 10 day(s).
| Time | Temp. | Humidity | Pressure | Rain* | Wind** | Luminosity | Snow |
|---|---|---|---|---|---|---|---|
| 1777939744 | 22.78° C | 47% | 1004.7 hPa | 0 mm | - | - | - |
| 1777939444 | 22.78° C | 46% | 1004.6 hPa | 0 mm | - | - | - |
| 1777939143 | 23.33° C | 47% | 1004.4 hPa | 0 mm | - | - | - |
| 1777938844 | 23.33° C | 45% | 1004.4 hPa | 0 mm | - | - | - |
| 1777938544 | 23.33° C | 45% | 1004.4 hPa | 0 mm | - | - | - |
| 1777938244 | 23.89° C | 44% | 1004.5 hPa | 0 mm | - | - | - |
| 1777937944 | 23.89° C | 44% | 1004.6 hPa | 0 mm | - | - | - |
| 1777937644 | 23.89° C | 43% | 1004.6 hPa | 0 mm | - | - | - |
| 1777937344 | 23.89° C | 43% | 1004.6 hPa | 0 mm | - | - | - |
| 1777937044 | 23.89° C | 42% | 1004.6 hPa | 0 mm | - | - | - |
| 1777936744 | 23.89° C | 43% | 1004.6 hPa | 0 mm | - | - | - |
| 1777936444 | 23.89° C | 43% | 1004.7 hPa | 0 mm | - | - | - |
| 1777936144 | 23.89° C | 43% | 1004.9 hPa | 0 mm | - | - | - |
| 1777935844 | 23.89° C | 43% | 1005 hPa | 0 mm | - | - | - |
| 1777935544 | 23.89° C | 43% | 1005 hPa | 0 mm | - | - | - |
| 1777935244 | 23.89° C | 44% | 1005 hPa | 0 mm | - | - | - |
| 1777934944 | 23.89° C | 43% | 1004.9 hPa | 0 mm | - | - | - |
| 1777934644 | 23.89° C | 42% | 1004.9 hPa | 0 mm | - | - | - |
| 1777934344 | 24.44° C | 42% | 1004.7 hPa | 0 mm | - | - | - |
| 1777934044 | 24.44° C | 43% | 1004.4 hPa | 0 mm | - | - | - |
| 1777933744 | 24.44° C | 46% | 1004.3 hPa | 0 mm | - | - | - |
| 1777933444 | 24.44° C | 44% | 1004.2 hPa | 0 mm | - | - | - |
| 1777933144 | 23.89° C | 46% | 1004.1 hPa | 0 mm | - | - | - |
| 1777932844 | 23.33° C | 45% | 1003.8 hPa | 0 mm | - | - | - |
| 1777932544 | 23.33° C | 44% | 1003.7 hPa | 0 mm | - | - | - |
* Rain latest hour (hover to see other rain measurements)
** Current wind speed in m/s (hover to see current wind gust speed)